Flag for Italy Weather past 2 weeks in Venice, Italy

Now
72 °F

Passing clouds.


Feels Like: 77 °F
Forecast: 59 / 72 °F
Wind: 8 mph from East

Location: Venice / Tessera


UV Index: 3 (Moderate)

Visibility: N/A


Pressure: 29.98 "Hg

Humidity: 53%

Dew point: 54 °F

Location of VeniceLocation

Historic Weather in Venice

°F

Venice temperature yesterday

Maximum temperature yesterday: 66 °F (at 12:50 PM)
Minimum temperature yesterday: 48 °F (at 5:50 AM)
Average temperature yesterday: 58 °F

Past Weeks' High & Low Weather Summary

 TemperatureHumidityPressure
High72 °F (Apr 23, 2:20 PM)100% (Apr 14, 8:50 AM)30.15 "Hg (Apr 14, 8:50 AM)
Low43 °F (Apr 17, 4:50 AM)20% (Apr 16, 12:50 PM)29.65 "Hg (Apr 18, 6:50 PM)
Average58 °F68%29.93 "Hg
* Reported Apr 8 2:20 PM — Apr 23 2:20 PM, Venice, Weather by CustomWeather, © 2014

Note: Actual official high and low records may vary slightly from our data, if they occured in-between our weather recording intervals... More about our weather records

Advertising

Historic Weather Conditions — Data for Previous 24 hours

 ConditionsComfort  
Time TempWeatherWind HumidityBarometerVisibility
2:20 PM
Apr 23
72 °FPassing clouds.5 mph53%29.98 "HgN/A
1:50 PM70 °FPassing clouds.3 mph57%29.98 "HgN/A
1:20 PM70 °FPassing clouds.3 mph60%30.01 "HgN/A
12:50 PM68 °FSunny.3 mph69%30.01 "Hg10 mi
12:20 PM66 °FClear.No wind73%30.01 "Hg6 mi
11:50 AM63 °FClear.5 mph94%30.01 "Hg4 mi
11:20 AM59 °FFog.3 mph100%30.04 "Hg2 mi
10:50 AM57 °FLight fog.2 mph100%30.04 "Hg1 mi
10:20 AM55 °FFog.2 mph100%30.04 "Hg1 mi
9:50 AM55 °FFog.No wind100%30.01 "Hg0 mi
9:20 AM54 °FFog.1 mph100%30.01 "Hg0 mi
8:50 AM54 °FFog.No wind100%30.01 "Hg0 mi
8:20 AM54 °FFog.No wind100%30.01 "Hg0 mi
7:50 AM54 °FFog.2 mph94%30.01 "Hg0 mi
7:20 AM54 °FFog.No wind94%30.01 "Hg0 mi
6:50 AM54 °FFog.2 mph94%30.01 "Hg0 mi
6:20 AM54 °FFog.5 mph100%29.98 "Hg0 mi
5:50 AM52 °FFog.3 mph100%30.01 "Hg0 mi
4:50 AM54 °FFog.3 mph100%30.01 "Hg0 mi
4:20 AM52 °FFog.No wind100%30.01 "Hg0 mi
3:50 AM52 °FFog.No wind88%30.01 "Hg3 mi
3:20 AM54 °FFog.1 mph94%30.01 "Hg3 mi
1:50 AM55 °FFog.6 mph94%30.01 "Hg6 mi
1:20 AM57 °FFog.6 mph94%30.01 "Hg6 mi
12:50 AM57 °FFog.2 mph94%30.01 "Hg6 mi
12:20 AM57 °FPassing clouds.2 mph88%30.01 "HgN/A
11:50 PM
Apr 22
57 °FPassing clouds.2 mph82%30.01 "HgN/A
11:20 PM59 °FPassing clouds.2 mph88%29.98 "HgN/A
10:50 PM59 °FClear.6 mph88%29.98 "Hg10 mi
10:20 PM59 °FClear.3 mph88%29.98 "Hg10 mi
9:50 PM61 °FClear.8 mph83%29.98 "Hg10 mi
9:20 PM61 °FClear.7 mph83%29.98 "Hg10 mi
8:50 PM61 °FSunny.3 mph77%29.95 "Hg10 mi
8:20 PM61 °FSunny.3 mph83%29.95 "Hg10 mi
7:50 PM61 °FSunny.7 mph83%29.92 "Hg10 mi
7:20 PM61 °FSunny.7 mph77%29.92 "Hg10 mi
6:50 PM63 °FScattered clouds.9 mph73%29.92 "HgN/A
6:20 PM63 °FScattered clouds.9 mph73%29.92 "HgN/A
5:50 PM63 °FScattered clouds.10 mph68%29.92 "HgN/A
5:20 PM64 °FScattered clouds.9 mph64%29.92 "HgN/A
4:50 PM64 °FPassing clouds.8 mph64%29.92 "HgN/A
4:20 PM64 °FPassing clouds.9 mph64%29.92 "HgN/A
3:50 PM64 °FPassing clouds.8 mph68%29.92 "HgN/A
3:20 PM66 °FPassing clouds.8 mph64%29.92 "HgN/A
Weather by CustomWeather, © 2014

See weather overview